Content
SEND FEEDBACK

Daily
Averages
Monthly
Summary
United States of America

BOILING SPRING LAKES, NORTH CAROLINA


Home > North America > United States > North Carolina
Elevation: 20 feet     Latitude: 34 00N     Longitude: 078 01W

WEATHER
 
SELECT A DAY
Number of Records: 136,625;   Date Range: 8/21/01 - 8/28/14
 
SHARE

PRINT THIS DATA

[ ← Previous Day ]
WEATHER ALMANAC - MARCH 14, 2014
[ Next Day → ]
[ °C ]   °F
Weather ElementAverageHighLow
Temperature45.1 °F56.7 °F (2:55 pm)28.2 °F (7:35 am)
Dewpoint30.5 °F48.9 °F (11:55 pm)21.6 °F (11:35 am)
Humidity60.6 %84 % (5:55 am)29 % (11:35 am)
Barometer30.29 in30.38 in (10:35 am)30.16 in (11:55 pm)
Wind Speed3.3 mph9.2 mph (3:55 pm)
Weather ElementAverage
Visibility10 mi
Wind DirectionE (93.2 °)

Weather ElementTotal
Precipitation---
Heating Degree Days22.6 (Base 65)
Averaged from 71 records on March 14, 2014
WEATHER CONDITIONS BREAKOUT
WIND DIRECTION BREAKOUT
WEATHER BY HOUR - MARCH 14, 2014
[ °C ]   °F
Local TimeTemperatureDewpointHumidityBarometerVisibilityWind DirectionWind SpeedGust SpeedPrecipitationEventsConditions
12:35 AM32.0 °F23.7 °F71 %30.26 in10.0 miCalmClear
12:55 AM31.3 °F24.6 °F76 %30.26 in10.0 miCalmClear
1:15 AM30.9 °F24.8 °F78 %30.26 in10.0 miCalmClear
1:35 AM30.9 °F25.3 °F80 %30.27 in10.0 miCalmClear
1:55 AM30.6 °F24.8 °F79 %30.27 in10.0 miCalmClear
2:15 AM30.7 °F24.4 °F77 %30.28 in10.0 miCalmClear
2:35 AM30.2 °F24.8 °F80 %30.28 in10.0 miCalmClear
2:55 AM30.4 °F24.8 °F80 %30.27 in10.0 miCalmClear
3:15 AM30.9 °F24.1 °F76 %30.28 in10.0 miCalmClear
3:35 AM30.2 °F24.6 °F80 %30.28 in10.0 miCalmClear
3:55 AM30.0 °F24.6 °F80 %30.28 in10.0 miCalmClear
4:15 AM30.0 °F24.8 °F81 %30.28 in10.0 miCalmClear
4:35 AM30.4 °F23.7 °F76 %30.28 in10.0 miCalmClear
4:55 AM31.3 °F22.6 °F70 %30.28 in10.0 miCalmClear
5:15 AM30.2 °F24.3 °F79 %30.29 in10.0 miCalmClear
5:35 AM29.3 °F24.3 °F81 %30.30 in10.0 miCalmClear
5:55 AM28.9 °F24.6 °F84 %30.31 in10.0 miCalmClear
6:15 AM30.0 °F24.3 °F79 %30.31 in10.0 miCalmClear
6:35 AM30.2 °F23.7 °F77 %30.31 in10.0 miCalmClear
6:55 AM28.9 °F23.2 °F79 %30.32 in10.0 miCalmClear
7:15 AM29.1 °F24.1 °F81 %30.32 in10.0 miCalmClear
7:35 AM28.2 °F24.1 °F84 %30.33 in10.0 miCalmClear
7:55 AM29.1 °F24.8 °F84 %30.34 in10.0 miCalmClear
8:15 AM31.3 °F26.8 °F83 %30.34 in10.0 miCalmClear
8:35 AM34.3 °F26.2 °F72 %30.35 in10.0 miCalmClear
8:55 AM39.2 °F27.7 °F63 %30.35 in10.0 miCalmClear
9:15 AM43.0 °F29.1 °F58 %30.36 in10.0 miCalmClear
9:35 AM46.6 °F27.7 °F48 %30.37 in10.0 miCalmClear
9:55 AM49.5 °F26.2 °F40 %30.37 in10.0 miESE (120°)8.1 mphClear
10:15 AM50.0 °F24.8 °F37 %30.37 in10.0 miSE (140°)6.9 mphClear
10:35 AM50.4 °F22.6 °F34 %30.38 in10.0 miESE (110°)5.8 mphClear
10:55 AM52.0 °F23.2 °F33 %30.38 in10.0 miESE (110°)4.6 mphClear
11:15 AM52.7 °F24.8 °F34 %30.38 in10.0 miSouth (170°)5.8 mphClear
11:35 AM53.4 °F21.6 °F29 %30.38 in10.0 miSouth (170°)8.1 mphClear
11:55 AM54.1 °F24.8 °F32 %30.38 in10.0 miSouth (190°)8.1 mphClear
12:15 PM55.2 °F26.1 °F33 %30.38 in10.0 miSouth (190°)8.1 mphClear
12:35 PM54.0 °F26.1 °F34 %30.37 in10.0 miSouth (170°)8.1 mphClear
12:55 PM55.4 °F25.9 °F32 %30.37 in10.0 miSouth (170°)6.9 mphClear
1:15 PM54.9 °F25.0 °F32 %30.37 in10.0 miSSE (150°)5.8 mphClear
1:35 PM55.2 °F27.3 °F34 %30.37 in10.0 miSouth (170°)5.8 mphClear
1:55 PM55.6 °F28.0 °F35 %30.35 in10.0 miSouth (170°)4.6 mphClear
2:15 PM55.0 °F26.8 °F34 %30.34 in10.0 miSSE (160°)8.1 mphClear
2:35 PM55.9 °F28.6 °F35 %30.33 in10.0 miSSW (210°)6.9 mphClear
2:55 PM56.7 °F30.0 °F36 %30.32 in10.0 miSouth (170°)6.9 mphClear
3:15 PM56.3 °F30.9 °F38 %30.32 in10.0 miSouth (180°)8.1 mphClear
3:35 PM56.1 °F31.1 °F39 %30.30 in10.0 miSouth (170°)8.1 mphClear
3:55 PM56.3 °F30.6 °F38 %30.30 in10.0 miSouth (180°)9.2 mphClear
4:15 PM56.3 °F31.1 °F38 %30.29 in10.0 miSouth (190°)9.2 mphClear
4:35 PM55.8 °F32.2 °F41 %30.27 in10.0 miSSW (200°)6.9 mphClear
4:55 PM55.8 °F32.2 °F41 %30.27 in10.0 miSSW (200°)6.9 mphClear
5:15 PM55.6 °F32.0 °F41 %30.26 in10.0 miSouth (180°)9.2 mphClear
5:35 PM55.6 °F33.1 °F43 %30.24 in10.0 miSSW (200°)9.2 mphClear
5:55 PM55.4 °F34.2 °F45 %30.24 in10.0 miSSW (200°)5.8 mphClear
6:15 PM55.4 °F34.2 °F45 %30.24 in10.0 miSSW (210°)4.6 mphClear
6:35 PM54.7 °F34.9 °F47 %30.24 in10.0 miSW (220°)4.6 mphClear
6:55 PM54.0 °F36.1 °F51 %30.24 in10.0 miSouth (190°)4.6 mphClear
7:15 PM52.9 °F37.8 °F56 %30.23 in10.0 miCalmClear
7:35 PM50.9 °F38.8 °F63 %30.22 in10.0 miCalmClear
7:55 PM50.0 °F40.1 °F69 %30.21 in10.0 miCalmClear
8:15 PM49.8 °F40.3 °F70 %30.22 in10.0 miCalmClear
8:35 PM48.6 °F39.6 °F71 %30.21 in10.0 miCalmClear
8:55 PM50.4 °F43.7 °F78 %30.22 in10.0 miSSW (210°)3.5 mphClear
9:15 PM52.5 °F45.0 °F75 %30.21 in10.0 miSSW (210°)3.5 mphClear
9:35 PM52.5 °F45.7 °F78 %30.22 in10.0 miSSW (210°)3.5 mphClear
9:55 PM52.9 °F46.4 °F79 %30.22 in10.0 miCalmClear
10:15 PM52.9 °F46.6 °F79 %30.21 in10.0 miSouth (190°)3.5 mphClear
10:35 PM54.0 °F46.4 °F76 %30.20 in10.0 miSouth (180°)4.6 mphClear
10:55 PM53.6 °F47.3 °F79 %30.19 in10.0 miSouth (180°)4.6 mphClear
11:15 PM54.0 °F47.8 °F80 %30.18 in10.0 miSouth (180°)5.8 mphClear
11:35 PM54.5 °F48.4 °F80 %30.17 in10.0 miSouth (180°)5.8 mphClear
11:55 PM54.3 °F48.9 °F82 %30.16 in10.0 miSouth (190°)5.8 mphClear
Hourly data recorded from KSUT, located miles away from Boiling Spring Lakes, North Carolina







STORIES FROM OUR PARTNERS